User: anonymous   Login
Location: Saluda
(35.2377°N, 82.3468°W)
Time: 11:39:10
(UTC+00:00)
Language:

Courier 1B - Orbit

View from above orbital plane
View from above orbital plane
View from above satellite
View from above satellite

Ground track
Ground track

The orbit data is extracted from the following two-line orbital elements,

1    58U 60013A   22278.01888354  .00000105  00000-0  26989-4 0  9995
2    58  28.3264 155.2592 0165011 180.1651 179.8854 13.46338894 52373
Epoch (UTC): 05 October 2022 00:27:11
Eccentricity: 0.0165011
inclination: 28.3264°
perigee height: 962 km
apogee height: 1209 km
right ascension of ascending node: 155.2592°
argument of perigee: 180.1651°
revolutions per day: 13.46338894
mean anomaly at epoch: 179.8854°
orbit number at epoch: 5237

The dashed part of the orbit path shows where the satellite is in the earth's shadow,  

DLR